TEMELIN Weather Reports


Display with metric or nautical units.
time (UTC)temp
F
wind
direction
speed
MPH
gust
MPH
rain 1hr
in
rain 24hr
in
rain mn
in
humidity
%
barometer
mb
20260508171817 59 30 9.0 0.0 0.00 0.00 0.00 54
20260508162031 61 10 5.0 0.0 0.00 0.00 0.00 55
20260508151822 61 50 7.0 0.0 0.00 0.00 0.00 48
20260508141820 61 70 5.0 0.0 0.00 0.00 0.00 48
20260508131917 59 30 7.0 0.0 0.00 0.00 0.00 51
20260508121818 57 20 7.0 0.0 0.00 0.00 0.00 54
20260508111821 55 40 7.0 0.0 0.00 0.00 0.00 66
20260508102031 54 60 7.0 0.0 0.00 0.00 0.00 71
20260508091818 54 20 2.0 0.0 0.00 0.00 0.00 66
20260508081818 52 50 5.0 0.0 0.00 0.00 0.00 71
20260508071921 48 200 5.0 0.0 0.00 0.00 0.00 87
20260508061820 46 210 2.0 0.0 0.00 0.00 0.00 93
20260508051820 46 240 2.0 0.0 0.00 0.00 0.00 87
20260508042025 43 230 2.0 0.0 0.00 0.00 0.00 93
20260508031817 45 330 2.0 0.0 0.00 0.00 0.00 93
20260508021818 43 310 2.0 0.0 0.00 0.00 0.00 93
20260508011918 45 250 5.0 0.0 0.00 0.00 0.00 93
20260508001817 46 310 2.0 0.0 0.00 0.00 0.00 87
20260507231817 46 120 2.0 0.0 0.00 0.00 0.00 87
20260507222121 48 240 2.0 0.0 0.00 0.00 0.00 81
20260507211820 48 300 9.0 0.0 0.00 0.00 0.00 81
20260507201822 50 310 5.0 0.0 0.00 0.00 0.00 81
20260507191921 50 330 7.0 0.0 0.00 0.00 0.00 81
20260507181818 54 310 12.0 0.0 0.00 0.00 0.00 71